SCP
0 0 0 0 0 0 0 0 0 -0 -0 -0 -0 -0 0 -0 -0 0 0 0 0 0 0 0 0 0 0 0 0 0 0 0
0 -0 -0 0 -0 -0 -0 -0 -0 -0 -0 -0 -0 -0 -0 -0 0 0 0 0 0 0 0 0 0 0 0 0 0 0 0 0
-0 -0 -0 -0 -0 -0 -0 -0 -0 0 -0 -0 -0 0 0 0 0 0 0 0 0 0 0 0 0 0 0 0 0 0 -0 -0
-0 -0 -0 -0 -0 -0 -0 -0 -0 -0 -0 0 0 0 0 0 0 0 0 0 0 0 0 0 0 0 0 0 0 0 0 0
-0 0 0 -0 -0 -0 -0 -0 -0 -0 0 0 0 0 0 0 0 0 0 0 0 0 0 0 0 0 0 0 0 0 0 0
-0 -0 -0 -0 -0 -0 -0 -0 -0 0 -0 0 0 0 0 0 0 0 0 0 0 0 0 0 0 0 0 0 0 0 0 0
-0 -0 -0 -0 -0 -0 -0 -0 -0 -0 -0 0 0 0 0 0 0 0 0 0 0 0 0 0 0 0 0 0 0 0 0 0
-0 -0 -0 -0 0 0 0 0 -0 -0 0 0 0 0 0 0 0 0 0 0 0 0 0 0 0 0 0 0 0 0 0 0
0 -0 0 0 -0 -0 -0 -0 -0 0 0 0 0 0 0 0 0 0 0 0 0 0 0 0 0 0 0 0 0 0 0 0
-0 -0 -0 -0 -0 0 0 -0 0 0 0 0 0 0 0 0 0 0 0 0 0 0 0 0 0 0 0 0 0 0 0 0
-0 -0 0 0 0 0 0 0 0 0 0 0 0 0 0 0 0 0 0 0 0 0 0 0 0 0 0 0 0 0 0 0
-0 0 0 0 0 0 0 0 0 0 0 0 0 0 0 0 0 0 0 0 0 0 0 0 0 0 0 0 0 0 0 0
0 0 0 0 0 0 0 0 0 0 0 0 0 0 0 0 0 0 0 0 0 0 0 0 0 0 0 0 0 0 0 0
0 0 0 -0 -0 0 0 0 0 0 0 0 0 0 0 0 0 0 0 0 0 0 0 0 0 0 0 0 0 0 0 0
-0 -0 0 -0 0 0 0 0 0 0 0 0 0 0 0 0 0 0 0 0 0 0 0 0 0 0 0 0 0 0 0 0
-0 -0 0 -0 -0 0 0 0 0 0 0 0 0 0 0 0 0 0 0 0 0 0 0 0 0 0 0 0 0 0 0 0
-0 -0 0 0 0 0 0 0 0 0 0 0 0 0 0 0 0 0 0 0 0 0 0 0 0 0 0 0 0 0 0 0
-0 -0 0 0 0 0 0 0 0 0 0 0 0 0 0 0 0 0 0 0 0 0 0 0 0 0 0 0 0 0 0 0
0 0 0 0 0 0 0 0 0 0 0 0 0 0 0 0 0 0 0 0 0 0 0 0 0 0 0 0 0 0 0 0
0 0 0 0 0 0 0 0 0 0 0 0 0 0 0 0 0 0 0 0 0 0 0 0 0 0 0 0 0 0 0 0
Wind_Speed_500mb
64 60 70 67 41 36 22 25 31 33 36 34 35 36 36 33 31 27 24 24 25 25 20 19 21 22 26 20 24 26 29 25
40 46 72 75 40 27 24 27 31 37 38 38 38 34 30 24 23 22 22 21 20 19 15 12 12 14 21 19 21 26 35 27
37 58 56 40 36 33 29 31 36 41 40 39 37 36 32 28 28 27 22 19 18 14 9 5 3 11 16 25 24 27 29 27
30 56 43 42 38 37 37 39 42 41 35 32 33 29 27 25 25 22 17 16 14 7 4 2 4 5 11 19 25 27 24 27
59 56 46 46 44 41 41 45 43 37 32 28 24 20 20 16 16 16 14 12 9 4 4 7 3 7 16 24 27 27 29 26
44 44 41 44 46 43 42 43 38 33 35 25 14 11 12 10 12 14 11 7 6 10 11 11 14 22 27 30 27 28 26 23
48 47 47 47 44 46 44 41 37 28 26 21 16 17 14 17 16 12 14 10 8 12 18 22 25 27 27 20 21 21 21 23
53 48 48 48 44 42 42 39 39 28 24 13 18 16 15 16 14 11 10 11 19 20 21 25 29 29 23 27 31 21 21 27
53 51 49 47 42 39 39 41 32 26 9 13 17 16 11 10 9 10 10 15 22 25 29 33 30 31 33 34 25 18 23 28
56 57 50 47 49 47 38 34 29 18 15 16 16 14 15 12 12 10 16 19 23 29 31 32 31 33 41 26 22 28 30 31
65 61 60 55 53 46 33 26 20 17 24 20 20 19 15 13 11 11 15 23 29 33 33 36 40 42 33 31 27 25 19 20
74 65 63 58 55 46 25 24 27 25 21 22 21 18 13 8 11 22 30 34 35 35 38 41 39 35 35 36 32 24 28 25
75 69 65 61 60 41 26 26 28 28 25 23 21 16 9 8 20 29 33 35 36 36 38 35 35 38 33 31 32 29 24 28
63 61 60 63 56 31 27 35 33 26 26 25 23 16 9 17 24 30 33 32 34 35 35 35 34 29 27 30 16 27 24 18
60 59 65 59 47 36 38 37 35 36 36 34 28 20 14 21 29 32 32 33 33 33 35 34 27 32 35 27 15 9 31 13
58 61 65 61 52 50 49 51 49 45 42 35 29 16 17 23 31 29 27 31 31 29 26 26 25 25 26 23 21 26 26 23
55 56 56 63 62 58 59 57 52 50 47 37 26 20 23 29 26 24 27 30 29 26 23 22 23 24 28 33 37 36 31 29
65 60 56 62 65 60 70 68 65 61 53 38 32 29 29 25 22 23 26 26 25 25 23 25 33 36 33 25 28 27 27 28
68 63 64 62 58 62 66 74 68 61 47 39 34 27 20 20 22 23 27 28 25 25 28 35 37 28 29 27 26 25 26 33
74 69 67 68 65 61 58 59 55 45 38 34 27 22 18 17 24 29 26 25 24 25 29 33 32 37 34 35 31 28 28 29
Wind_Direction_500mb
129 104 114 116 108 117 151 145 136 132 132 131 130 130 127 126 122 110 97 86 85 80 68 56 60 51 28 37 28 24 9 359
89 78 107 114 136 148 143 139 132 133 135 135 129 123 118 116 109 98 85 86 77 70 56 54 24 9 360 358 5 358 359 346
138 105 139 146 154 151 144 137 136 134 134 130 125 116 104 110 107 107 98 100 94 90 88 94 9 309 331 350 354 1 354 343
171 164 142 154 159 152 145 143 138 137 131 126 124 126 124 123 121 118 128 128 133 137 106 153 315 0 5 351 345 347 344 339
137 149 154 158 155 144 142 143 137 133 133 136 132 126 127 130 141 157 153 156 145 168 268 246 224 8 338 330 332 333 331 330
152 150 149 161 149 146 148 152 149 143 146 133 122 131 163 178 177 165 180 201 236 256 267 283 301 306 320 326 331 328 324 321
155 147 145 149 150 148 147 158 159 144 145 140 170 184 203 201 204 210 236 232 244 271 281 283 295 305 312 314 322 309 309 303
155 151 151 153 157 157 162 159 157 157 157 176 201 210 202 204 210 213 205 255 288 296 299 303 311 316 313 317 327 313 305 299
166 166 170 173 165 170 174 164 160 169 196 188 192 196 213 210 195 195 267 289 298 300 301 303 306 302 300 298 307 299 299 297
173 174 176 173 175 185 183 176 187 213 188 187 183 175 165 164 191 243 280 289 296 300 298 306 307 302 308 321 320 314 308 304
180 179 178 181 186 190 187 208 203 185 162 162 163 165 175 210 243 280 313 322 317 312 304 301 303 310 316 314 314 302 291 298
184 182 185 190 189 190 203 189 176 175 172 175 170 177 197 240 314 324 319 315 308 298 296 299 305 306 306 304 307 291 286 284
184 184 188 193 192 194 206 209 187 178 185 185 191 202 214 301 320 317 312 304 298 300 304 304 305 305 304 300 301 289 269 275
189 189 198 198 200 209 232 202 183 192 194 203 224 238 280 316 314 311 307 301 299 300 300 303 307 301 297 308 303 279 277 260
193 199 202 201 203 201 194 188 194 195 201 215 219 222 270 304 314 305 293 291 290 291 294 296 298 296 301 300 300 266 304 297
196 202 204 205 208 201 203 202 205 210 221 221 219 235 281 293 288 285 286 288 293 292 295 296 303 296 291 294 298 296 299 291
201 198 204 209 209 218 219 215 217 218 215 213 214 239 263 274 281 288 291 298 304 306 313 314 301 291 288 290 293 295 295 287
204 200 205 206 214 220 220 216 213 213 210 209 219 240 259 269 283 294 303 307 306 310 319 309 303 299 301 314 313 309 295 292
206 206 209 212 214 209 212 212 216 214 210 215 233 248 261 281 294 301 308 307 308 309 314 304 313 313 306 312 313 309 284 287
203 205 213 209 209 210 210 215 211 207 219 232 245 261 278 296 308 307 307 302 299 302 304 307 303 310 316 311 308 290 276 284
Wind_Speed_850mb
64 60 70 67 41 36 22 25 31 33 36 34 35 36 36 33 31 27 24 24 25 25 20 19 21 22 26 20 24 26 29 25
40 46 72 75 40 27 24 27 31 37 38 38 38 34 30 24 23 22 22 21 20 19 15 12 12 14 21 19 21 26 35 27
37 58 56 40 36 33 29 31 36 41 40 39 37 36 32 28 28 27 22 19 18 14 9 5 3 11 16 25 24 27 29 27
30 56 43 42 38 37 37 39 42 41 35 32 33 29 27 25 25 22 17 16 14 7 4 2 4 5 11 19 25 27 24 27
59 56 46 46 44 41 41 45 43 37 32 28 24 20 20 16 16 16 14 12 9 4 4 7 3 7 16 24 27 27 29 26
44 44 41 44 46 43 42 43 38 33 35 25 14 11 12 10 12 14 11 7 6 10 11 11 14 22 27 30 27 28 26 23
48 47 47 47 44 46 44 41 37 28 26 21 16 17 14 17 16 12 14 10 8 12 18 22 25 27 27 20 21 21 21 23
53 48 48 48 44 42 42 39 39 28 24 13 18 16 15 16 14 11 10 11 19 20 21 25 29 29 23 27 31 21 21 27
53 51 49 47 42 39 39 41 32 26 9 13 17 16 11 10 9 10 10 15 22 25 29 33 30 31 33 34 25 18 23 28
56 57 50 47 49 47 38 34 29 18 15 16 16 14 15 12 12 10 16 19 23 29 31 32 31 33 41 26 22 28 30 31
65 61 60 55 53 46 33 26 20 17 24 20 20 19 15 13 11 11 15 23 29 33 33 36 40 42 33 31 27 25 19 20
74 65 63 58 55 46 25 24 27 25 21 22 21 18 13 8 11 22 30 34 35 35 38 41 39 35 35 36 32 24 28 25
75 69 65 61 60 41 26 26 28 28 25 23 21 16 9 8 20 29 33 35 36 36 38 35 35 38 33 31 32 29 24 28
63 61 60 63 56 31 27 35 33 26 26 25 23 16 9 17 24 30 33 32 34 35 35 35 34 29 27 30 16 27 24 18
60 59 65 59 47 36 38 37 35 36 36 34 28 20 14 21 29 32 32 33 33 33 35 34 27 32 35 27 15 9 31 13
58 61 65 61 52 50 49 51 49 45 42 35 29 16 17 23 31 29 27 31 31 29 26 26 25 25 26 23 21 26 26 23
55 56 56 63 62 58 59 57 52 50 47 37 26 20 23 29 26 24 27 30 29 26 23 22 23 24 28 33 37 36 31 29
65 60 56 62 65 60 70 68 65 61 53 38 32 29 29 25 22 23 26 26 25 25 23 25 33 36 33 25 28 27 27 28
68 63 64 62 58 62 66 74 68 61 47 39 34 27 20 20 22 23 27 28 25 25 28 35 37 28 29 27 26 25 26 33
74 69 67 68 65 61 58 59 55 45 38 34 27 22 18 17 24 29 26 25 24 25 29 33 32 37 34 35 31 28 28 29
Wind_Direction_850mb
129 104 114 116 108 117 151 145 136 132 132 131 130 130 127 126 122 110 97 86 85 80 68 56 60 51 28 37 28 24 9 359
89 78 107 114 136 148 143 139 132 133 135 135 129 123 118 116 109 98 85 86 77 70 56 54 24 9 360 358 5 358 359 346
138 105 139 146 154 151 144 137 136 134 134 130 125 116 104 110 107 107 98 100 94 90 88 94 9 309 331 350 354 1 354 343
171 164 142 154 159 152 145 143 138 137 131 126 124 126 124 123 121 118 128 128 133 137 106 153 315 0 5 351 345 347 344 339
137 149 154 158 155 144 142 143 137 133 133 136 132 126 127 130 141 157 153 156 145 168 268 246 224 8 338 330 332 333 331 330
152 150 149 161 149 146 148 152 149 143 146 133 122 131 163 178 177 165 180 201 236 256 267 283 301 306 320 326 331 328 324 321
155 147 145 149 150 148 147 158 159 144 145 140 170 184 203 201 204 210 236 232 244 271 281 283 295 305 312 314 322 309 309 303
155 151 151 153 157 157 162 159 157 157 157 176 201 210 202 204 210 213 205 255 288 296 299 303 311 316 313 317 327 313 305 299
166 166 170 173 165 170 174 164 160 169 196 188 192 196 213 210 195 195 267 289 298 300 301 303 306 302 300 298 307 299 299 297
173 174 176 173 175 185 183 176 187 213 188 187 183 175 165 164 191 243 280 289 296 300 298 306 307 302 308 321 320 314 308 304
180 179 178 181 186 190 187 208 203 185 162 162 163 165 175 210 243 280 313 322 317 312 304 301 303 310 316 314 314 302 291 298
184 182 185 190 189 190 203 189 176 175 172 175 170 177 197 240 314 324 319 315 308 298 296 299 305 306 306 304 307 291 286 284
184 184 188 193 192 194 206 209 187 178 185 185 191 202 214 301 320 317 312 304 298 300 304 304 305 305 304 300 301 289 269 275
189 189 198 198 200 209 232 202 183 192 194 203 224 238 280 316 314 311 307 301 299 300 300 303 307 301 297 308 303 279 277 260
193 199 202 201 203 201 194 188 194 195 201 215 219 222 270 304 314 305 293 291 290 291 294 296 298 296 301 300 300 266 304 297
196 202 204 205 208 201 203 202 205 210 221 221 219 235 281 293 288 285 286 288 293 292 295 296 303 296 291 294 298 296 299 291
201 198 204 209 209 218 219 215 217 218 215 213 214 239 263 274 281 288 291 298 304 306 313 314 301 291 288 290 293 295 295 287
204 200 205 206 214 220 220 216 213 213 210 209 219 240 259 269 283 294 303 307 306 310 319 309 303 299 301 314 313 309 295 292
206 206 209 212 214 209 212 212 216 214 210 215 233 248 261 281 294 301 308 307 308 309 314 304 313 313 306 312 313 309 284 287
203 205 213 209 209 210 210 215 211 207 219 232 245 261 278 296 308 307 307 302 299 302 304 307 303 310 316 311 308 290 276 284